{"data":{"norad_id":27718,"epoch":"2026-09-19T21:05:35.104992Z","epoch_age_seconds":68117,"freshness":"FRESH","line1":"1 27718U 03014A   26262.87887853 -.00000224  00000+0  00000+0 0  9992","line2":"2 27718   4.9400  74.5063 0002721 108.4457 279.7944  1.00272823 46254","mean_motion":1.00272823,"eccentricity":0.0002721,"inclination_deg":4.94,"raan_deg":74.5063,"arg_perigee_deg":108.4457,"mean_anomaly_deg":279.7944,"bstar":0,"rev_number":4625,"period_min":1436.0820379017,"perigee_km":35774.831030231,"apogee_km":35797.77691901,"semimajor_km":42164.44097462,"source":"CELESTRAK","updated_at":"2026-09-20T09:00:35.121419Z"}}